{"data":{"norad_id":48652,"epoch":"2026-08-30T12:13:42.153888Z","epoch_age_seconds":1850705,"freshness":"OLD","line1":"1 48652U 21044Q   26242.50951567  .05864697  12265-4  89246-3 0  9997","line2":"2 48652  53.0225 331.8233 0009836 327.8723  32.1719 16.33273600291157","mean_motion":16.332736,"eccentricity":0.0009836,"inclination_deg":53.0225,"raan_deg":331.8233,"arg_perigee_deg":327.8723,"mean_anomaly_deg":32.1719,"bstar":0.00089246,"rev_number":29115,"period_min":88.166489680602,"perigee_km":177.30276012796,"apogee_km":190.21131808169,"semimajor_km":6561.8940391048,"source":"CELESTRAK","updated_at":"2026-08-31T09:02:10.678836Z"}}